Погода в Саломатине

Россия / Волгоградская область     50°01′04″N   44°51′04″E
темп.,
°C
ветер,
м/с
пор.,
м/с
влажн.,
%
обл.,
%
осадки,
мм/ч
давл.,
гПа
погр.,
м
4 августа, ср
ср400:00+23всв495441 0.0 1011155
03:00+23св3653100 0.0 101090
06:00+23ссв5116584 0.0 1010271
09:00+25с5657100 0.0 1012388
12:00+30ссз3241100 0.0 10121318
15:00+31зсз5538100 0.0 10122223
18:00+26с5857100 0.1 1013491
21:00+22ссз49660 0.2 1014188
5 августа, чт
чт500:00+20ссз4975100 0.0 1015172
03:00+19с377599 0.0 1015160
06:00+19ссз38742 0.0 1016228
09:00+26с674351 0.0 10161371
12:00+28с5529100 0.0 10162203
15:00+29с55250 0.0 10162418
18:00+28ссв452835 0.0 1016912
21:00+22ссв4540100 0.0 101659
6 августа, пт
пт600:00+20св354447 0.0 101661
03:00+18всв475228 0.0 101693
06:00+19в38555 0.0 1017189
09:00+26вюв55342 0.0 1016829
12:00+30вюв33265 0.0 10151978
15:00+31в44220 0.0 10142409
18:00+29всв56260 0.0 1014600
21:00+23всв510365 0.0 1014150
7 августа, сб
сб700:00+21всв511383 0.0 1014183
03:00+20в410385 0.0 1014161
06:00+21в5113987 0.0 1014223
09:00+28в6727100 0.0 1014578
12:00+32вюв5619100 0.0 10131908
15:00+34вюв6615100 0.0 10112414
18:00+32в4720100 0.0 1011198
21:00+27в5122490 0.0 1011191
8 августа, вс
вс800:00+26в61523100 0.0 1011322
03:00+26вюв61624100 0.0 1011353
06:00+25вюв51428100 0.0 1012374
09:00+31юв71022100 0.0 1011652
12:00+34юв5619100 0.0 10111220
15:00+36вюв71016100 0.0 10092589
18:00+33в4621100 0.0 1009152
21:00+26всв4530100 0.0 101069